Кульджа

Китай     43°56′02″N   81°17′57″E
темп.,
°C
ветер,
м/с
пор.,
м/с
влажн.,
%
обл.,
%
осадки,
мм/ч
давл.,
гПа
погр.,
м
22 апреля, чт
чт2200:00+3зюз2375100 0.0 1025641
03:00+1юз2481100 0.1 1026468
06:000юз2361100 0.2 1029432
09:00+3зюз4839100 0.0 10291158
12:00+7зюз6831100 0.0 10281706
15:00+10з7102429 0.0 10262560
18:00+10зюз12122510 0.0 10262318
21:00+6зюз1118270 0.0 10311488
23 апреля, пт
пт2300:00+5з814353 0.0 10321142
03:00+3з37477 0.0 1033195
06:00+1в33542 0.0 103441
09:00+6юз484068 0.0 10341969
12:00+9юз49241 0.1 10302434
15:00+11з810210 0.0 10282550
18:00+11зюз78160 0.0 10272892
21:00+6з713220 0.0 1030531
24 апреля, сб
сб2400:00+2св22370 0.0 103124
03:000св34420 0.0 103258
06:000св33430 0.0 103242
09:00+5ююв11290 0.0 1030793
12:00+9зюз23230 0.0 10271616
15:00+12зюз35150 0.0 10241956
18:00+12зсз12190 0.0 10241766
21:00+6св57384 0.0 1028151
25 апреля, вс
вс2500:00+4св453711 0.0 102987
03:00+4св4531100 0.0 102871
06:00+6всв3428100 0.0 102791
09:00+11вюв57214 0.0 1026812
12:00+15юв3216100 0.0 10231476
15:00+16юз2216100 0.0 10211602
18:00+17зсз341739 0.0 10221461
21:00+11св33240 0.0 102323
26 апреля, пн
пн2600:00+9св33290 0.0 102433
03:00+9св33290 0.0 102421
06:00+8св33310 0.0 102526
09:00+15вюв462539 0.0 1024600
12:00+19ю132093 0.0 10221494
15:00+22з58180 0.0 10202042
18:00+21сз46215 0.0 1020591
21:00+14всв333077 0.0 102117